Weather History for Atwater, CA

Change the Weather History Date:

Wednesday, October 2, 2013

  Actual Average (KMCE) Record (KMCE)
Temperature  
Mean Temperature 66 °F 68 °F  
Max Temperature 82 °F 84 °F 100 °F (2012)
Min Temperature 51 °F 52 °F 46 °F (2007)
Degree Days  
Heating Degree Days 0    
Month to date heating degree days  
Since 1 July heating degree days  
Cooling Degree Days 2    
Month to date cooling degree days  
Year to date cooling degree days  
Growing Degree Days 16 (Base 50)    
Moisture  
Dew Point 46 °F    
Average Humidity 65    
Maximum Humidity 100    
Minimum Humidity 17    
Precipitation  
Precipitation 0.00 in 0.01 in 0.15 in (1976)
Month to date precipitation 0.01  
Year to date precipitation 9.00  
Since 1 July precipitation 0.32  
Snow  
Snow 0.00 in - - ()
Month to date snowfall  
Since 1 July snowfall  
Since 1 September snowfall  
Snow Depth -    
Sea Level Pressure  
Sea Level Pressure 29.93 in    
Wind  
Wind Speed 6 mph (North)    
Max Wind Speed 14 mph    
Max Gust Speed -    
Visibility 10 miles    
Events      
T = Trace of Precipitation, MM = Missing Value Source: NWS Daily Summary

Daily Weather History Graph

Daily Weather History Graph

Search for Another Location

Airport:

Trip Planner

Search our weather history database for the weather conditions in past years. The results will help you decide how hot, cold, wet, or windy it might be!

Date:

Astronomy

Oct. 02, 2013 Rise Set
Actual Time 6:58 AM PDT 6:43 PM PDT
Civil Twilight 6:32 AM PDT 7:09 PM PDT
Nautical Twilight 6:02 AM PDT 7:39 PM PDT
Astronomical Twilight 5:32 AM PDT 8:10 PM PDT
Moon 4:39 AM PDT (10/2) 5:20 PM PDT (10/2)
Length of Visible Light 12h 36m
Length of Day
11h 44m
Waning Crescent, 6% of the Moon is Illuminated
Oct 2
Waning Crescent
Oct 4
New
Oct 11
First Quarter
Oct 18
Full
Oct 26
Last Quarter

Hourly Weather History & Observations

Time (PDT) Temp. Dew Point Humidity Pressure Visibility Wind Dir Wind Speed Gust Speed Precip Events Conditions
12:15 AM 57.2 °F 48.2 °F 72% 29.91 in 10.0 mi North 5.8 mph - N/A   Partly Cloudy
12:35 AM 55.4 °F 48.2 °F 77% 29.91 in 10.0 mi North 5.8 mph - N/A   Clear
12:55 AM 55.4 °F 48.2 °F 77% 29.91 in 10.0 mi North 5.8 mph - N/A   Clear
1:15 AM 55.4 °F 50.0 °F 82% 29.91 in 10.0 mi North 4.6 mph - N/A   Mostly Cloudy
1:35 AM 55.4 °F 50.0 °F 82% 29.91 in 10.0 mi NNE 4.6 mph - N/A   Scattered Clouds
1:55 AM 55.4 °F 50.0 °F 82% 29.91 in 10.0 mi NNE 5.8 mph - N/A   Clear
2:15 AM 55.4 °F 50.0 °F 82% 29.91 in 10.0 mi NNE 5.8 mph - N/A   Clear
2:35 AM 55.4 °F 50.0 °F 82% 29.91 in 10.0 mi NNE 4.6 mph - N/A   Mostly Cloudy
2:55 AM 55.4 °F 50.0 °F 82% 29.91 in 10.0 mi NNE 3.5 mph - N/A   Scattered Clouds
3:15 AM 53.6 °F 51.8 °F 94% 29.90 in 10.0 mi NNE 3.5 mph - N/A   Clear
3:35 AM 53.6 °F 51.8 °F 94% 29.90 in 10.0 mi North - - N/A   Clear
3:55 AM 55.4 °F 51.8 °F 88% 29.91 in 10.0 mi North - - N/A   Scattered Clouds
4:15 AM 55.4 °F 51.8 °F 88% 29.91 in 10.0 mi NW 5.8 mph - N/A   Mostly Cloudy
4:35 AM 55.4 °F 51.8 °F 88% 29.92 in 10.0 mi NW 5.8 mph - N/A   Clear
4:55 AM 55.4 °F 51.8 °F 88% 29.92 in 10.0 mi NW 3.5 mph - N/A   Clear
5:15 AM 53.6 °F 51.8 °F 94% 29.92 in 10.0 mi NW 4.6 mph - N/A   Scattered Clouds
5:35 AM 53.6 °F 51.8 °F 94% 29.92 in 10.0 mi NW 4.6 mph - N/A   Mostly Cloudy
5:55 AM 53.6 °F 51.8 °F 94% 29.93 in 10.0 mi NW 4.6 mph - N/A   Clear
6:15 AM 53.6 °F 51.8 °F 94% 29.93 in 10.0 mi NW 4.6 mph - N/A   Clear
6:35 AM 51.8 °F 51.8 °F 100% 29.93 in 10.0 mi NNW 3.5 mph - N/A   Mostly Cloudy
6:45 AM 51.8 °F 51.8 °F 100% 29.94 in 7.0 mi NNW 4.6 mph - N/A   Scattered Clouds
6:55 AM 51.8 °F 51.8 °F 100% 29.94 in 10.0 mi North 4.6 mph - N/A   Mostly Cloudy
7:45 AM 53.6 °F 53.6 °F 100% 29.95 in 7.0 mi NNW 5.8 mph - N/A   Scattered Clouds
8:45 AM 62.6 °F 46.4 °F 55% 29.96 in 7.0 mi NNW 9.2 mph - N/A   Scattered Clouds
9:45 AM 66.2 °F 44.6 °F 46% 29.98 in 10.0 mi NNW 11.5 mph - N/A   Scattered Clouds
10:45 AM 71.6 °F 44.6 °F 38% 29.98 in 10.0 mi NNW 13.8 mph - N/A   Scattered Clouds
11:45 AM 75.2 °F 42.8 °F 31% 29.98 in 10.0 mi NW 13.8 mph - N/A   Scattered Clouds
12:45 PM 78.8 °F 42.8 °F 28% 29.96 in 10.0 mi NW 11.5 mph - N/A   Partly Cloudy
1:45 PM 80.6 °F 42.8 °F 26% 29.93 in 10.0 mi NNW 11.5 mph - N/A   Clear
2:45 PM 82.4 °F 39.2 °F 21% 29.91 in 10.0 mi NNW 11.5 mph - N/A   Clear
3:45 PM 82.4 °F 33.8 °F 17% 29.89 in 10.0 mi North 9.2 mph - N/A   Clear
4:45 PM 82.4 °F 33.8 °F 17% 29.89 in 10.0 mi NW 12.7 mph - N/A   Clear
6:45 PM 71.6 °F 39.2 °F 31% 29.90 in 10.0 mi NNW 5.8 mph - N/A   Clear
7:45 PM 68.0 °F 39.2 °F 35% 29.90 in 10.0 mi North 5.8 mph - N/A   Clear
8:45 PM 64.4 °F 39.2 °F 40% 29.92 in 10.0 mi NNW 9.2 mph - N/A   Clear
9:15 PM 66.2 °F 42.8 °F 43% 29.92 in 10.0 mi North 11.5 mph - N/A   Partly Cloudy
9:35 PM 64.4 °F 42.8 °F 45% 29.93 in 10.0 mi North 9.2 mph - N/A   Clear
9:55 PM 64.4 °F 41.0 °F 42% 29.93 in 10.0 mi North 10.4 mph - N/A   Clear
10:15 PM 62.6 °F 39.2 °F 42% 29.94 in 10.0 mi North 9.2 mph - N/A   Clear
10:35 PM 62.6 °F 39.2 °F 42% 29.94 in 10.0 mi North 9.2 mph - N/A   Clear
10:55 PM 60.8 °F 41.0 °F 48% 29.95 in 10.0 mi NE 8.1 mph - N/A   Clear
11:15 PM 60.8 °F 42.8 °F 52% 29.95 in 10.0 mi NE 8.1 mph - N/A   Clear
11:35 PM 60.8 °F 44.6 °F 55% 29.95 in 10.0 mi NE 6.9 mph - N/A   Clear
11:55 PM 59.0 °F 44.6 °F 59% 29.95 in 10.0 mi NNE 4.6 mph - N/A   Clear